Flag for Pakistan Weather past 2 weeks in Rawalpindi, Pakistan

Now
59 °F

Haze.


Feels Like: 57 °F
Forecast: 46 / 62 °F
Wind: 12 mph from West

Location: Islamabad Airport

Current Time: Jan 31, 2015 at 7:05:56 PM

Latest Report: Jan 31, 2015 at 6:00 PM


Visibility: 2 mi

Pressure: 30.01 "Hg

Humidity: 48%

Dew point: 39 °F

Location of RawalpindiLocation

Historic Weather in Rawalpindi — Graph

°F

Rawalpindi temperature yesterday

Maximum temperature yesterday: 63 °F (at 2:00 PM)
Minimum temperature yesterday: 37 °F (at 7:00 AM)
Average temperature yesterday: 50 °F

Past Weeks' High & Low Weather Summary

 TemperatureHumidityPressure
High68 °F (Jan 17, 3:00 PM)100% (Jan 21, 8:00 AM)30.27 "Hg (Jan 21, 8:00 AM)
Low36 °F (Jan 28, 7:00 AM)28% (Jan 17, 4:00 PM)29.98 "Hg (Jan 28, 4:00 PM)
Average51 °F70%30.14 "Hg
* Reported Jan 16 5:00 PM — Jan 31 5:00 PM, Rawalpindi, Weather by CustomWeather, © 2014

Note: Actual official high and low records may vary slightly from our data, if they occured in-between our weather recording intervals... More about our weather records

Advertising

Rawalpindi weather history for previous 24 hours

 ConditionsComfort  
Time TempWeatherWind HumidityBarometerVisibility
5:00 PM
Jan 31
63 °FSunny.12 mph37%30.01 "Hg3 mi
4:00 PM66 °FSunny.14 mph35%30.01 "Hg3 mi
3:00 PM66 °FSunny.9 mph32%30.01 "Hg3 mi
2:00 PM66 °FSunny.9 mph30%30.04 "Hg2 mi
1:00 PM63 °FSunny.7 mph37%30.09 "Hg2 mi
12:00 PM61 °FSunny.7 mph39%30.09 "Hg2 mi
11:00 AM55 °FSunny.No wind55%30.12 "Hg2 mi
10:00 AM50 °FSunny.No wind71%30.12 "Hg2 mi
9:00 AM43 °FHaze.No wind71%30.12 "Hg2 mi
8:00 AM39 °FHaze.No wind75%30.12 "Hg2 mi
7:00 AM41 °FHaze.No wind76%30.09 "Hg2 mi
6:00 AM41 °FClear.No wind76%30.09 "Hg3 mi
5:00 AM43 °FClear.No wind71%30.09 "Hg3 mi
4:00 AM43 °FClear.No wind71%30.09 "Hg3 mi
3:00 AM45 °FClear.No wind66%30.09 "Hg3 mi
2:00 AM45 °FClear.No wind66%30.12 "Hg3 mi
1:00 AM45 °FClear.No wind71%30.15 "Hg3 mi
12:00 AM48 °FClear.No wind62%30.15 "Hg3 mi
11:00 PM
Jan 30
48 °FClear.No wind62%30.15 "Hg3 mi
10:00 PM48 °FClear.7 mph62%30.15 "Hg3 mi
9:00 PM50 °FClear.9 mph54%30.15 "Hg3 mi
8:00 PM52 °FClear.9 mph50%30.15 "Hg3 mi
7:00 PM55 °FClear.14 mph44%30.12 "Hg3 mi
Weather by CustomWeather, © 2014

See weather overviewHow to use our weather pages